Location: Brunembert
(50.7122°N, 1.8935°E)
Time: 10:49:46
(UTC+00:00)

Cosmos 1763 Rocket - Pass Details

Date: 22 April 2021
Orbit: 733 x 779 km, 74.0° (Epoch: 05 May)

Event Time Altitude Azimuth Distance (km) Brightness Sun altitude
Rises 20:54:24 0° 336° (NNW) 3,180 8.0 -16.0°
Reaches altitude 10° 20:56:47 10° 339° (NNW) 2,250 7.0 -16.3°
Maximum altitude 21:01:51 68° 63° (ENE) 791 3.5 -16.9°
Enters shadow 21:04:17 31° 139° (SE) 1,284 4.1 -17.1°
